Regional Weather Roundup
Issued by NWS Upton, NY

Current Version | Previous Version | Graphics & Text | Print | Product List | Glossary Off
Versions: 1 2 3 4 5 6 7 8 9 10 11 12 13 14 15 16 17 18 19 20 21 22 23 24 25 26 27 28 29 30 31 32 33 34 35 36 37 38 39 40 41 42 43 44 45 46 47 48 49 50

000
ASUS41 KOKX 212308
RWROKX

REGIONAL WEATHER ROUNDUP
NATIONAL WEATHER SERVICE NEW YORK NY
700 PM EDT MON AUG 21 2017

NOTE: "FAIR" INDICATES FEW OR NO CLOUDS BELOW 12,000 FEET WITH NO
SIGNIFICANT WEATHER AND/OR OBSTRUCTIONS TO VISIBILITY.

NYZ071-072-176-178-NJZ106-104-220000-
NEW YORK CITY METRO AREA

CITY           SKY/WX    TMP DP  RH WIND       PRES   REMARKS
Central Park   PTCLDY    81  67  62 VRB6      30.12F
Bronx Bot Gard   N/A     82  66  57 E2        30.11F
LaGuardia APRT MOCLDY    82  69  64 S13       30.09F
Kennedy INTL   MOCLDY    79  72  79 S17       30.10F
Breezy Point     N/A     75 N/A N/A S13G18      N/A
Newark/Liberty MOCLDY    83  67  58 S13       30.09F
Teterboro      PTCLDY    83  68  60 S9        30.07F
$$

NYZ177-179-078>081-220000-
LONG ISLAND NEW YORK

CITY           SKY/WX    TMP DP  RH WIND       PRES   REMARKS
Jones Beach      N/A     75 N/A N/A S9G15       N/A
Matinecock PT    N/A     79 N/A N/A SW8         N/A
Farmingdale    CLEAR     77  68  73 SW13      30.11F
MacArthur/ISP  PTCLDY    78  68  71 SW12      30.11F
Shirley        CLEAR     78  70  76 S8        30.13F
Mt Sinai Harb    N/A    N/A N/A N/A S10G16      N/A
Westhampton    CLEAR     76  67  73 SW10      30.14F
East Hampton   FAIR      75  66  72 SW8       30.12F
Montauk          N/A     77  65  66 SW8G18    30.13F
$$

NYZ052-065-067-220000-
HUDSON VALLEY

CITY           SKY/WX    TMP DP  RH WIND       PRES   REMARKS
White Plains   PTCLDY    79  66  64 S7        30.10F
Larchmont Harb   N/A     77 N/A N/A S16         N/A
Croton On Huds   N/A     82 N/A N/A S6          N/A
Newburgh       PTCLDY    82  72  69 SW8       30.10F
Montgomery     CLEAR     80  70  71 S6        30.08F
Poughkeepsie   CLEAR     82  68  62 S3        30.07F
Albany         PTCLDY    82  65  56 S7        30.05F
$$

NJZ001-105-106-008-010-013-015-019>022-104-220000-
NEW JERSEY

CITY           SKY/WX    TMP DP  RH WIND       PRES   REMARKS
Newark/Liberty MOCLDY    83  67  58 S13       30.09F
Teterboro      PTCLDY    83  68  60 S9        30.07F
Caldwell       PTCLDY    83  70  64 VRB6      30.09F
Somerville     PTCLDY    81  72  74 S5        30.09S
Linden         FAIR      83  65  55 SW3       30.10S
Perth Amboy      N/A     81 N/A N/A S9          N/A
Sussex         PTCLDY    80  72  76 SW3       30.10F
Andover          N/A     78  71  79 CALM      30.12S
Trenton        CLEAR     81  69  67 SW8       30.11S
Millville      CLOUDY    81  74  79 S7        30.12F
Atlantic City  CLEAR     79  70  74 S9        30.13F
Wrightstown    CLEAR     78  71  77 S6        30.09F
Toms River     CLEAR     79  71  76 S7        30.13F
Belmar         CLEAR     80  69  69 S7        30.13F
$$

PAZ047>061-062-071-220000-
EASTERN PENNSYLVANIA

CITY           SKY/WX    TMP DP  RH WIND       PRES   REMARKS
Philadelphia   CLOUDY    83  70  64 S7        30.12S
Allentown      PTCLDY    83  70  64 S9        30.11S
Scranton       TSTM      76  71  85 SW7       30.12R
$$

CTZ002-004>006-009-010-012-RIZ004-006-007-MAZ004-011-015-220000-
SOUTHERN NEW ENGLAND
 IN CT

CITY           SKY/WX    TMP DP  RH WIND       PRES   REMARKS
Bradley INTL   PTCLDY    83  64  52 SW7       30.08F
Hartford       CLEAR     84  63  49 S7        30.08S
Danbury        CLEAR     80  66  62 S10       30.12F
Wtrbury/Oxford CLEAR     77  66  68 S8        30.13F
Norwalk Harbor   N/A     77 N/A N/A S10         N/A
Bridgeport     CLEAR     80  67  64 SW13      30.09F
Meriden        CLEAR     80  64  58 S9        30.09F
New Haven      PTCLDY    78  66  66 SW7       30.10F
Chester        FAIR      79  64  61 S6G14     30.12S
Groton         CLEAR     75  67  76 SW5       30.11S
Wilimantic     CLEAR     81  64  56 S6        30.10S

 IN RI

CITY           SKY/WX    TMP DP  RH WIND       PRES   REMARKS
Providence     PTCLDY    80  65  59 SW8       30.10S
Block Island   CLEAR     72  66  81 SW14      30.13F
Westerly       CLEAR     79  65  62 SW7       30.12F
 IN MA

CITY           SKY/WX    TMP DP  RH WIND       PRES   REMARKS
Boston         PTCLDY    83  62  49 W12       30.07S
Worcester      CLEAR     77  59  53 SW10      30.12S
Westfield      CLEAR     79  67  66 SE5       30.07F
Provincetown   CLEAR     74  68  81 SW13      30.09S
Nantucket      PTCLDY    72  68  87 SW12      30.12S
$$

ANZ330-335-338-340-345-350-353-355-220000-
COASTAL MARINE OBSERVATIONS


STATION/POSITION TIME  SKY/WX   TEMP    WIND        PRES    VSBY  WAVE
                                AIR SEA DIR/SP/G                  HT/PER
                 (UTC)          (F)     (DEG/KT/KT) (MB)    (MI)  (FT/S)
NY HARB ENTRANCE 2150            77 76  200/ 19/ 21 1019.5          3/ 4
GREAT SOUTH BAY  2230            77 80  220/ 14/ 16   N/A
23 SSW MONTAUK P 2150            75 73              1020.8          2/ 7
15 E BARNEGAT LI 2230               78                N/A           3/ 4
HUDSON CANYON    2150            76 76  210/ 10/ 12 1020.7          2/ 8
KINGS POINT      2224            79 77  200/ 12/ 15 1019.0
EXECUTION ROCKS  NOT AVBL
WESTERN LI SOUND NOT AVBL
CENTRAL LI SOUND NOT AVBL
EASTERN LI SOUND NOT AVBL
ROBBINS REEF     2224                   170/ 12/ 14 1019.8
$$


>>>>>>>>>>>>>>>>>>>>>>>>>>>> KEY <<<<<<<<<<<<<<<<<<<<<<<<<<<
>                                                          <
>     SKY/WX - Sky Condition/Present Weather               <
>     TMP    - Temperature in Fahrenheit                   <
>     DP     - Dew Point in Fahrenheit                     <
>     RH     - Relative Humidity in Percent                <
>     WIND   - Direction (from) and Speed in MPH           <
>     PRES   - Mean Sea Level Pressure (inches of Hg)      <
>     WCI    - Wind Chill Index                            <
>     VSB    - VISIBILITY IN MILES                         <
>     HX     - HEAT INDEX                                  <
>     TC     - TEMPERATURE IN CELSIUS                      <
>     VRB    - VARIABLE WIND DIRECTION                     <
>                                                          <
>>>>>>>>>>>>>>>>>>>>>>>>>>>> KEY <<<<<<<<<<<<<<<<<<<<<<<<<<<



USA.gov is the U.S. government's official web portal to all federal, state and local government web resources and services.